Location: Bruch
(44.2051°N, 0.4120°E)
Time: 14:05:23
(UTC+00:00)

NOAA 6 - Pass Details

Date: 15 April 2021
Orbit: 772 x 787 km, 98.7° (Epoch: 05 May)

Event Time Altitude Azimuth Distance (km) Brightness Sun altitude
Rises 04:33:47 0° 36° (NE) 3,258 8.3 -7.8°
Reaches altitude 10° 04:38:02 10° 70° (ENE) 2,325 8.3 -7.1°
Maximum altitude 04:39:35 11° 88° (E) 2,236 7.8 -6.8°
Drops below altitude 10° 04:41:07 10° 105° (ESE) 2,323 7.4 -6.6°
Sets 04:45:20 0° 139° (SE) 3,246 7.5 -5.9°
